Lid_Strength_Index
5 5 5 4 4 4 4 4 4 4 4 3 4 3 3 4 3 2 6 5 6 8 7 6 5 8 8 9 11 9 10 9 9 12 12 13 14 12 13 13 13 14 15 15 14 16 18 7 8 13 10 9 8 8
4 4 4 4 4 4 4 5 4 4 3 3 3 3 3 4 3 2 7 4 4 6 6 5 5 5 5 6 8 9 8 9 9 11 11 11 12 11 12 15 10 14 12 13 12 13 9 8 9 8 8 8 8 9
4 4 4 4 4 4 4 4 4 4 4 3 4 4 4 4 3 2 6 4 6 7 7 7 7 5 4 4 5 8 8 7 8 8 10 9 12 11 14 13 12 10 9 12 12 10 9 8 8 8 8 8 9 9
4 4 4 4 4 4 4 4 4 4 3 3 4 4 4 4 3 1 6 4 6 7 10 8 4 5 4 4 5 6 5 6 7 8 10 11 12 9 11 11 11 9 10 11 11 10 9 8 8 8 7 8 8 9
4 4 5 5 4 5 5 4 5 4 3 3 3 4 4 3 2 2 4 5 6 7 10 9 7 6 6 5 5 6 6 7 8 9 10 10 10 10 11 11 12 10 11 11 12 8 9 9 8 8 8 9 9 9
4 5 5 5 5 5 5 4 5 4 4 3 3 3 3 3 3 6 6 4 7 6 8 12 8 7 6 6 6 6 6 7 8 8 9 9 9 10 12 13 9 8 8 8 8 7 8 8 8 7 8 8 8 9
4 4 5 5 5 4 4 4 4 4 4 3 3 3 2 2 4 7 8 6 5 6 8 11 11 7 6 7 7 7 7 8 8 9 9 9 10 10 12 13 10 8 7 7 7 7 9 8 9 8 8 8 8 8
5 4 4 5 4 4 4 4 4 4 3 3 3 3 2 3 4 6 6 4 5 7 8 12 11 9 6 9 9 8 9 9 9 9 9 10 10 11 13 11 8 7 7 7 7 7 7 8 8 8 8 9 9 8
4 4 3 3 4 3 3 3 2 2 2 2 2 2 4 5 6 5 2 3 5 7 11 11 12 12 7 9 9 8 9 10 9 10 10 10 11 12 10 9 7 7 7 8 8 8 8 8 9 9 9 10 9 8
4 4 3 3 3 3 3 2 2 1 1 2 3 6 8 6 3 3 6 7 8 9 10 11 10 11 9 9 10 10 10 11 12 10 9 11 11 9 8 7 6 6 7 7 9 9 9 9 9 10 10 9 8 8
3 3 2 2 2 1 2 1 0 1 1 3 6 7 6 3 5 7 10 11 11 12 11 10 10 10 8 10 10 9 11 11 13 11 11 13 12 9 7 7 6 7 7 7 6 7 8 9 9 10 9 8 8 9
2 2 2 1 1 1 1 0 1 2 3 3 4 4 3 6 8 10 12 12 13 12 11 11 10 9 8 7 8 8 11 11 13 10 11 13 10 9 8 8 7 7 7 7 6 7 8 9 9 9 8 8 8 9
3 2 2 2 1 1 1 1 1 1 2 3 4 5 7 9 11 11 13 13 14 11 10 9 10 7 8 7 8 9 11 12 10 12 13 11 9 8 8 8 8 7 6 7 7 8 8 8 7 7 8 8 9 9
3 3 3 3 2 2 2 2 1 2 3 5 7 10 9 11 11 12 11 11 9 9 9 9 10 8 7 9 10 12 11 11 13 14 13 10 9 8 8 8 8 8 7 8 8 8 8 8 7 7 7 8 9 8
3 3 3 3 2 2 2 2 1 2 3 7 7 12 10 9 9 9 8 8 8 7 8 9 9 8 9 9 10 11 13 14 12 13 11 9 9 8 8 8 8 8 8 8 8 8 8 9 8 8 8 9 8 7
3 3 5 3 2 1 2 2 2 3 3 6 6 8 8 8 8 7 8 8 7 7 7 7 10 10 10 10 12 12 12 14 12 11 9 9 8 8 8 8 7 7 7 8 8 8 8 8 8 8 8 8 7 6
3 7 3 2 2 1 2 3 3 4 6 6 8 7 8 8 8 7 7 8 7 7 9 10 11 12 11 13 13 12 12 11 10 9 8 8 8 8 7 7 6 7 7 7 8 8 9 8 8 8 9 8 6 5
6 6 2 2 2 2 2 3 5 5 8 7 8 8 7 7 8 7 8 8 8 9 10 10 10 12 13 13 13 11 10 9 9 8 8 8 8 7 6 7 6 6 7 7 8 8 9 8 8 8 8 8 6 4
5 4 2 2 3 4 5 4 5 8 7 7 7 8 7 7 8 8 8 9 9 9 10 11 10 12 12 11 11 10 10 9 8 8 7 7 6 6 6 6 6 7 7 8 8 9 9 8 8 8 8 8 6 5
2 2 2 2 2 6 6 7 5 9 9 8 7 8 8 8 8 9 9 10 11 12 12 13 12 11 10 9 9 9 9 8 8 8 7 7 6 5 6 6 7 6 7 8 9 10 9 8 8 7 8 8 6 5
3 3 3 3 5 6 7 7 8 8 8 9 9 9 9 8 9 10 10 10 11 12 13 12 11 10 9 8 9 9 8 8 7 7 7 7 5 6 6 5 6 7 8 8 9 9 9 8 7 7 8 7 5 4
5 2 5 4 7 6 7 7 8 7 9 9 10 10 10 10 11 10 9 11 11 11 11 11 10 10 9 8 8 7 7 6 6 6 6 6 6 6 5 5 6 6 7 8 8 9 8 8 7 8 8 7 5 4
4 5 6 6 8 11 11 8 9 9 10 10 10 11 12 11 11 9 11 11 10 9 9 10 8 7 7 6 6 7 6 6 6 6 5 4 5 4 4 4 5 5 7 7 7 8 8 9 8 8 7 6 5 5
4 7 9 9 10 12 8 10 10 10 10 11 11 11 10 10 9 11 11 11 10 9 9 8 6 7 7 7 8 7 6 6 5 5 5 5 5 4 3 4 4 4 4 5 6 7 7 7 8 7 7 6 5 5
11 11 11 15 10 10 10 10 10 10 11 9 10 10 10 9 11 11 11 11 9 8 8 8 7 7 8 8 6 4 4 5 4 5 5 5 6 6 5 4 3 3 4 5 6 7 7 7 7 7 7 6 5 5
16 11 12 10 10 10 10 10 10 10 10 10 10 9 9 12 11 12 10 8 8 7 7 7 7 7 7 6 5 4 4 3 3 5 5 5 5 5 5 5 5 5 4 4 5 6 7 7 7 6 7 6 8 5
13 11 10 8 8 9 9 9 9 10 10 10 11 10 10 13 12 10 8 7 7 6 6 6 5 5 5 5 3 3 3 3 3 4 4 5 5 5 5 5 5 4 3 4 4 5 6 6 6 6 7 6 5 4
9 9 10 9 9 9 10 10 10 9 11 9 9 10 12 12 13 9 7 6 6 6 5 5 5 5 5 4 4 4 4 4 3 4 4 5 5 5 4 4 4 7 3 3 3 4 5 6 6 6 6 6 5 4
10 9 9 10 9 9 9 9 9 8 7 10 11 12 12 9 7 7 6 6 6 6 6 6 6 6 6 5 5 5 5 5 5 6 7 8 7 5 4 4 4 4 3 4 10 6 5 6 5 5 5 5 5 4
10 9 10 9 9 10 8 7 8 8 8 9 10 10 10 8 7 6 7 7 7 6 6 6 7 7 7 7 7 7 6 6 5 6 8 7 6 5 4 4 4 3 3 4 5 7 11 7 8 6 6 6 5 5
9 9 10 10 9 8 8 8 9 9 10 12 8 9 9 8 8 7 7 6 4 5 6 6 7 7 7 8 7 7 8 7 6 5 5 5 5 4 4 3 3 3 3 4 5 5 6 6 6 5 6 6 6 6
10 9 10 10 10 9 8 11 12 9 10 9 9 8 7 8 10 8 5 5 6 6 8 8 8 7 7 7 7 7 9 7 6 6 5 6 6 5 4 4 3 3 3 4 4 4 5 6 6 5 6 6 6 5
9 9 9 9 11 11 9 8 7 8 8 9 9 8 8 8 8 5 4 3 4 5 4 5 5 5 5 5 5 6 8 6 7 9 9 10 10 8 6 5 4 3 3 4 4 5 5 6 6 6 5 6 6 6